Jackson, TN

7:23 AM CST on November 13, 2019 (GMT -0600)
McKellar-Sipes Regional

Weather History for KMKL - October, 2019

Change the Weather History Date:

Sunday, October 20, 2019

  Actual Average Record
Temperature  
Mean Temperature 69 °F 59 °F  
Max Temperature 78 °F 72 °F 89 °F (1953)
Min Temperature 60 °F 47 °F 32 °F (1989)
Degree Days  
Heating Degree Days 0 7  
Month to date heating degree days 100 95  
Since 1 July heating degree days 100 121  
Cooling Degree Days 4 1  
Month to date cooling degree days 83 38  
Year to date cooling degree days 1948 1681  
Growing Degree Days 19 (Base 50)    
Moisture  
Dew Point 59 °F    
Average Humidity 82    
Maximum Humidity 100    
Minimum Humidity 52    
Precipitation  
Precipitation 0.00 in 0.12 in 1.64 in (1985)
Month to date precipitation 3.85 2.41  
Year to date precipitation 51.63 41.66  
Sea Level Pressure  
Sea Level Pressure 29.86 in    
Wind  
Wind Speed 3 mph ()    
Max Wind Speed 14 mph    
Max Gust Speed 22 mph    
Visibility 8.5 miles    
Events      
T = Trace of Precipitation, MM = Missing Value Source: Averaged Metar Reports

Daily Weather History Graph

Daily Weather History Graph

Search for Another Location

Airport or City:

Astronomy

Oct. 20, 2019 Rise Set
Actual Time 7:06 AM CDT 6:14 PM CDT
Civil Twilight 6:40 AM CDT 6:39 PM CDT
Nautical Twilight 6:10 AM CDT 7:09 PM CDT
Astronomical Twilight 5:41 AM CDT 7:39 PM CDT
Moon 11:30 PM CDT (10/20) 1:25 PM CDT (10/20)
Length of Visible Light 11h 59m
Length of Day
11h 07m
Waning Gibbous, 59% of the Moon is Illuminated
Oct 20
Waning Gibbous
Oct 21
Last Quarter
Oct 27
New
Nov 4
First Quarter
Nov 12
Full

Hourly Weather History & Observations

Time (CDT) Temp. Dew Point Humidity Pressure Visibility Wind Dir Wind Speed Gust Speed Precip Events Conditions
12:53 AM 60.1 °F 59.0 °F 96% 29.82 in 9.0 mi Calm Calm - N/A   Overcast
1:11 AM 61.0 °F 60.1 °F 97% 29.82 in 8.0 mi South 3.5 mph - N/A   Overcast
1:53 AM 61.0 °F 60.1 °F 97% 29.82 in 3.0 mi Calm Calm - N/A   Overcast
2:53 AM 61.0 °F 61.0 °F 100% 29.83 in 10.0 mi SW 5.8 mph - N/A   Overcast
3:53 AM 61.0 °F 60.1 °F 97% 29.83 in 4.0 mi SW 3.5 mph - N/A   Overcast
4:04 AM 61.0 °F 61.0 °F 100% 29.84 in 2.0 mi SSW 3.5 mph - N/A   Overcast
4:29 AM 60.1 °F 60.1 °F 100% 29.84 in 1.5 mi West 3.5 mph - N/A   Overcast
4:53 AM 60.1 °F 60.1 °F 100% 29.84 in 1.2 mi Calm Calm - N/A   Overcast
5:21 AM 60.1 °F 60.1 °F 100% 29.86 in 3.0 mi SW 3.5 mph - N/A   Overcast
5:53 AM 60.1 °F 59.0 °F 96% 29.86 in 10.0 mi SW 3.5 mph - N/A   Overcast
6:19 AM 60.1 °F 59.0 °F 96% 29.87 in 10.0 mi Calm Calm - N/A   Overcast
6:53 AM 60.1 °F 57.9 °F 93% 29.88 in 10.0 mi Calm Calm - N/A   Overcast
7:53 AM 60.1 °F 59.0 °F 96% 29.90 in 10.0 mi Calm Calm - N/A   Overcast
8:53 AM 61.0 °F 57.9 °F 90% 29.92 in 10.0 mi SE 4.6 mph - N/A   Overcast
9:25 AM 61.0 °F 57.9 °F 90% 29.93 in 10.0 mi Calm Calm - N/A   Overcast
9:53 AM 64.0 °F 59.0 °F 84% 29.92 in 10.0 mi SE 3.5 mph - N/A   Overcast
10:53 AM 66.9 °F 59.0 °F 76% 29.92 in 10.0 mi Variable 3.5 mph - N/A   Overcast
11:53 AM 70.0 °F 59.0 °F 68% 29.91 in 10.0 mi SSW 5.8 mph - N/A   Clear
12:53 PM 73.9 °F 57.0 °F 55% 29.90 in 10.0 mi Variable 5.8 mph - N/A   Clear
1:53 PM 75.9 °F 57.0 °F 52% 29.88 in 10.0 mi Calm Calm - N/A   Partly Cloudy
2:53 PM 75.9 °F 57.9 °F 54% 29.85 in 10.0 mi South 4.6 mph - N/A   Clear
3:53 PM 77.0 °F 59.0 °F 54% 29.85 in 10.0 mi Variable 5.8 mph - N/A   Clear
4:53 PM 75.9 °F 60.1 °F 58% 29.85 in 10.0 mi Variable 4.6 mph - N/A   Clear
5:53 PM 72.0 °F 60.1 °F 66% 29.85 in 10.0 mi SSE 4.6 mph - N/A   Clear
6:53 PM 70.0 °F 59.0 °F 68% 29.86 in 10.0 mi SSE 4.6 mph - N/A   Mostly Cloudy
7:53 PM 66.9 °F 60.1 °F 79% 29.85 in 10.0 mi Calm Calm - N/A   Clear
8:53 PM 66.0 °F 60.1 °F 81% 29.85 in 10.0 mi South 4.6 mph - N/A   Clear
9:53 PM 66.0 °F 60.1 °F 81% 29.86 in 10.0 mi South 5.8 mph - N/A   Clear
10:18 PM 66.0 °F 60.1 °F 81% 29.87 in 10.0 mi South 6.9 mph - N/A   Mostly Cloudy
10:53 PM 66.9 °F 59.0 °F 76% 29.85 in 10.0 mi South 8.1 mph - N/A   Mostly Cloudy
11:02 PM 66.9 °F 57.9 °F 73% 29.86 in 10.0 mi South 6.9 mph - N/A   Partly Cloudy
11:53 PM 66.9 °F 59.0 °F 76% 29.83 in 10.0 mi South 9.2 mph 19.6 mph N/A   Clear